CAPE
0 0 13 141 327 103 25 102 0 0 0 0 0 0 209 373 239 151 0 23 493 807 906 1215 1954 2116 2093 1871 2079 2269 2358 2251 2349 2270 2032 1986 2027 1942 1969 1825 1558 1690 1672 1694 1273 1383 1399 1311 1342
0 1 59 440 174 30 40 57 0 0 0 0 0 38 261 324 38 0 0 99 544 762 1006 1270 1716 1732 2021 2099 2080 2125 2334 2247 2346 2324 1706 1827 1966 1945 2106 1633 1621 1370 1379 1250 1748 1635 1530 1310 1414
0 50 379 228 6 40 37 130 0 0 0 36 199 361 476 124 0 0 0 203 581 873 1154 1284 1346 1274 1336 1749 2160 2054 2174 2099 2345 2392 1788 1533 2014 2083 2041 2027 1961 1916 1868 1805 1695 1732 1626 1628 1480
35 169 129 101 30 38 135 258 8 0 6 248 243 324 84 38 0 0 79 279 593 857 1120 1212 1348 1604 1312 1121 1208 1346 1845 1939 2174 2292 1787 1681 1993 2081 2230 2041 1839 1534 1488 1463 1672 1714 1676 1674 1409
292 92 7 44 80 115 148 92 15 0 33 265 312 219 8 38 40 19 193 330 558 853 902 1371 1798 1608 1651 1567 1956 1684 1337 1965 1964 2272 1848 1590 1827 1999 2181 2098 1994 1945 1948 1739 1729 1929 1922 1753 1291
8 53 8 1 34 109 211 182 30 40 125 150 83 5 110 102 44 83 234 384 520 650 1056 1275 1512 1918 1822 1633 1776 1721 1540 1695 2047 2115 1689 1501 2077 2061 2288 2233 2068 1954 1966 1846 1607 1654 1565 1414 1399
194 5 56 5 33 87 179 219 53 163 143 144 7 4 106 151 147 167 239 333 434 413 818 956 891 1432 1531 1747 1694 1732 1660 1880 1854 1907 1466 1600 1835 2004 2018 2118 2055 1870 1787 1762 1685 1672 1500 1778 1585
238 178 89 29 18 95 108 161 104 163 160 21 1 28 77 209 194 212 336 390 278 320 952 995 897 1249 976 1369 1480 1651 1542 1718 1785 1488 1507 1506 1751 2142 1889 1862 2052 1959 1878 1626 1604 1581 1471 1941 1556
186 106 31 45 79 52 95 96 125 81 91 8 2 0 66 126 130 142 222 191 142 224 359 944 615 861 1064 1141 1092 1340 1523 1542 1737 1155 1415 1551 1564 1713 2080 1742 2052 1924 1697 1450 1524 1580 1590 1684 1568
187 91 38 55 36 35 73 84 49 66 137 64 0 52 59 82 53 0 0 37 98 281 430 713 452 810 921 971 1300 1172 1227 1112 1221 1389 1460 1500 1622 1635 1754 1730 1988 1808 1559 1584 1414 1382 1119 1378 745
65 71 62 118 88 53 39 88 60 86 84 59 58 45 51 31 2 0 0 51 201 397 398 503 528 720 913 1108 982 988 944 846 1201 1440 1413 1409 1541 1608 1281 1192 1120 957 1068 1235 1299 1369 1251 1180 986
77 107 28 55 57 5 9 31 66 70 42 19 0 60 29 10 0 0 0 120 243 335 370 488 523 818 1031 637 658 471 352 477 625 1058 1329 1487 1297 1139 950 792 1100 1121 1220 1591 1397 1104 1495 1165 1515
135 68 110 70 16 58 47 88 65 38 12 0 0 0 0 0 0 0 0 83 191 293 328 452 513 827 954 939 543 347 307 353 553 938 1146 990 844 1037 1165 1400 1239 1334 1529 1243 1272 1118 1367 1023 1110
0 45 112 62 28 71 32 26 79 7 6 0 0 0 0 0 0 0 0 59 135 203 237 471 509 663 764 964 969 699 449 662 619 706 901 1150 945 1262 1384 1286 1309 1615 1549 1443 1336 1447 986 831 977
0 4 130 63 42 19 16 0 62 14 0 0 0 0 0 0 0 0 0 31 95 182 290 464 424 506 740 949 907 438 404 573 650 723 1173 1362 1299 1726 1447 1510 1442 1419 1760 2071 1406 929 732 391 523
0 1 55 121 39 76 29 28 138 6 0 0 0 0 0 0 0 0 0 24 74 269 340 387 133 422 799 873 798 491 691 588 627 631 876 1128 1420 1624 1632 1415 1379 1737 1702 1249 1075 946 857 743 736
0 17 47 176 95 13 20 29 54 12 0 7 7 1 41 52 70 0 0 33 101 376 568 499 384 451 754 1003 922 900 773 906 719 773 882 1261 1301 1605 1363 1277 1393 1867 1548 1277 1194 1437 1495 1085 1060
0 0 212 124 154 79 147 41 43 23 54 43 44 70 81 121 160 63 42 106 119 394 675 559 654 680 817 875 1030 853 836 939 743 698 861 1375 1443 1588 1415 1392 1543 1621 1294 1230 1529 1944 1478 1255 1364
0 0 238 205 83 149 81 12 75 48 28 48 42 70 106 130 230 182 141 136 285 397 572 677 712 830 892 864 550 600 636 807 864 1031 1504 1505 1378 1579 1798 1251 1228 1396 1385 1932 2111 1568 1604 961 1346
2 1 251 213 374 143 101 112 92 75 0 97 59 52 98 116 140 297 238 258 341 545 577 638 732 926 993 913 794 760 685 759 795 1062 1370 1383 1331 1608 1479 1675 1237 1448 1396 2102 2327 2327 1016 995 1761
187 132 220 184 251 231 113 97 146 66 40 77 78 120 75 97 160 305 316 310 368 584 735 697 794 923 904 758 988 845 1077 1003 878 983 974 1228 1463 1416 1378 1590 1297 1135 1550 1452 1899 1880 2066 936 1600
0 6 203 364 193 123 249 3 170 90 112 130 62 103 112 96 124 223 328 360 368 508 735 800 855 1123 801 1093 861 803 678 659 631 660 909 1007 1273 1243 1155 1528 1119 1120 1286 1758 1778 1745 1818 2414 1033
0 4 134 216 137 140 105 0 12 177 153 76 126 44 62 81 76 129 239 348 374 482 588 704 897 1161 945 863 759 604 525 556 703 840 1234 1075 1455 1382 1114 1556 1160 1271 944 1956 1856 2090 2250 1660 1475
0 3 19 25 109 4 37 71 44 181 153 180 133 135 22 58 55 89 142 298 483 460 546 547 783 1028 1028 1189 913 696 663 623 728 853 951 912 868 940 1170 1495 1577 1510 1622 1796 1681 1970 2277 2186 2178
0 13 4 0 0 36 0 0 72 61 89 201 204 159 182 10 32 59 153 311 544 471 543 484 772 945 936 1041 985 938 621 686 539 728 648 601 835 857 1165 1315 1548 1346 1552 1990 1969 2072 2123 2233 1921
0 10 4 6 43 74 69 0 45 97 94 141 210 176 209 151 45 78 194 312 536 530 640 544 806 952 907 871 896 1025 1018 582 487 616 954 862 891 617 924 999 1043 1608 1682 1699 1993 1587 1517 1831 1894
0 0 3 9 53 63 86 82 165 197 186 180 214 206 110 235 113 126 208 346 634 580 691 724 830 992 932 837 1012 1004 935 663 487 759 716 928 1299 858 891 901 933 1172 1132 1533 1700 1252 1528 1930 1944
0 0 3 0 32 20 102 72 293 354 303 256 230 236 147 162 165 198 264 413 613 389 813 703 925 1071 940 765 902 690 852 954 741 789 755 1118 1396 1431 1141 1104 962 1256 1256 1524 1500 1221 1540 1812 1643
0 0 0 10 0 56 73 96 592 713 590 450 388 249 192 162 162 281 375 636 697 758 730 784 977 943 740 607 698 524 738 726 913 849 1035 967 1228 1517 1138 1347 1312 1317 1212 1326 1358 1404 1363 1750 1453
0 0 0 0 8 0 64 402 657 823 792 562 640 494 309 274 266 371 757 816 863 732 356 188 725 811 867 863 942 888 799 898 789 864 1126 1272 1240 1395 1553 1554 1504 1133 1161 1381 1188 1160 947 1427 1357
CIN
-0 -0 -85 -28 -1 -19 -3 -2 -0 -0 -0 -0 -0 -0 -6 -8 -4 -11 -0 -58 -5 -1 -8 -5 -0 -0 -0 -1 -0 -0 -0 -0 -0 -0 -1 -0 -0 -0 -0 -0 -0 -1 -0 -0 -2 -0 -0 -0 -0
-0 -66 -107 -3 -18 -7 -2 -1 -0 -0 -0 -0 -0 -11 -1 -13 -96 -0 -0 -45 -2 -1 -1 -1 -1 -1 -0 -0 -0 -0 -0 -0 -0 -0 -1 -1 -1 -0 -0 -0 -0 -1 -0 -1 -0 -0 -0 -0 -0
-0 -64 -0 -8 -35 -5 -1 -1 -0 -0 -0 -20 -46 -2 -1 -46 -0 -0 -0 -31 -1 -1 -1 -3 -10 -15 -20 -2 -0 -0 -0 -0 -0 -0 -5 -3 -1 -1 -0 -0 -0 -0 -0 -0 -1 -0 -0 -0 -0
-99 -2 -6 -5 -2 -36 -5 -13 -35 -0 -19 -28 -42 -36 -75 -74 -0 -0 -47 -9 -2 -1 -1 -2 -2 -2 -21 -40 -24 -16 -0 -0 -0 -0 -2 -7 -0 -0 -0 -1 -3 -5 -5 -5 -1 -1 -0 -0 -0
-1 -11 -14 -9 -2 -3 -5 -14 -23 -0 -38 -19 -6 -45 -33 -73 -62 -62 -11 -2 -1 -1 -1 -1 -0 -1 -0 -1 -0 -1 -9 -0 -0 -0 -3 -2 -2 -0 -0 -1 -1 -0 -0 -3 -3 -0 -0 -0 -0
-47 -25 -26 -25 -0 -1 -6 -12 -23 -11 -24 -60 -76 -18 -64 -42 -67 -27 -2 -1 -2 -2 -0 -1 -1 -0 -0 -0 -0 -1 -1 -0 -0 -0 -4 -7 -0 -0 -0 -0 -0 -0 -1 -4 -8 -4 -3 -1 -0
-2 -42 -2 -24 -1 -1 -3 -21 -17 -4 -22 -19 -14 -27 -60 -22 -15 -12 -1 -2 -2 -1 -1 -1 -1 -2 -1 -0 -0 -0 -0 -0 -0 -0 -7 -3 -0 -0 -0 -0 -0 -0 -10 -10 -9 -9 -11 -1 -0
-0 -0 -0 -14 -31 -0 -16 -40 -35 -2 -18 -73 -37 -101 -96 -24 -11 -8 -1 -1 -1 -1 -1 -0 -1 -1 -1 -0 -0 -0 -0 -0 -0 -0 -3 -3 -3 -0 -4 -11 -1 -5 -10 -21 -17 -16 -15 -1 -8
-1 -1 -1 -3 -1 -21 -34 -51 -47 -53 -51 -48 -4 -0 -88 -58 -32 -15 -8 -5 -5 -1 -1 -0 -0 -1 -0 -0 -3 -3 -0 -1 -0 -9 -6 -2 -1 -1 -1 -11 -8 -14 -25 -33 -27 -25 -22 -19 -20
-0 -0 -6 -11 -16 -45 -55 -72 -64 -34 -37 -42 -0 -69 -69 -72 -59 -1 -0 -32 -6 -2 -1 -1 -2 -0 -0 -1 -0 -1 -1 -1 -0 -0 -1 -1 -1 -2 -2 -3 -19 -29 -34 -32 -34 -32 -28 -17 -1
-1 -0 -1 -0 -8 -74 -52 -36 -29 -8 -28 -34 -95 -116 -71 -83 -12 -0 -0 -12 -1 -2 -2 -1 -1 -0 -0 -3 -1 -1 -0 -1 -1 -0 -1 -1 -0 -1 -1 -1 -2 -18 -30 -1 -5 -6 -1 -0 -1
-1 -1 -9 -22 -10 -82 -32 -56 -20 -3 -3 -36 -0 -94 -85 -72 -0 -0 -0 -8 -1 -1 -1 -1 -0 -0 -0 -1 -1 -0 -4 -1 -1 -0 -0 -0 -1 -1 -0 -1 -7 -3 -7 -10 -6 -2 -17 -1 -1
-2 -1 -2 -36 -30 -5 -4 -1 -40 -22 -33 -0 -0 -0 -0 -0 -0 -0 -0 -16 -2 -1 -1 -1 -1 -0 -0 -1 -0 -3 -8 -1 -1 -1 -0 -1 -2 -2 -1 -1 -1 -1 -0 -1 -1 -1 -4 -1 -1
-0 -3 -1 -19 -1 -0 -16 -41 -22 -22 -23 -0 -0 -0 -0 -0 -0 -0 -0 -29 -2 -1 -3 -1 -1 -1 -0 -1 -0 -1 -1 -1 -1 -0 -5 -1 -1 -1 -1 -1 -1 -0 -1 -1 -1 -4 -3 -7 -0
-6 -30 -1 -8 -9 -7 -10 -0 -1 -25 -1 -0 -0 -0 -0 -0 -0 -0 -0 -49 -11 -2 -1 -0 -2 -3 -1 -1 -0 -1 -0 -1 -0 -1 -1 -0 -0 -0 -1 -1 -2 -0 -1 -0 -1 -11 -21 -43 -38
-0 -38 -1 -0 -2 -8 -15 -2 -0 -2 -0 -0 -1 -0 -0 -0 -0 -0 -0 -44 -18 -1 -1 -1 -9 -3 -1 -1 -0 -0 -0 -1 -0 -1 -2 -8 -14 -8 -2 -1 -1 -1 -1 -0 -1 -0 -4 -15 -28
-0 -5 -22 -0 -9 -61 -14 -15 -10 -10 -0 -1 -1 -2 -3 -1 -2 -0 -0 -29 -15 -1 -1 -1 -1 -1 -1 -1 -1 -1 -8 -1 -0 -1 -1 -5 -8 -8 -1 -1 -1 -4 -0 -1 -1 -1 -1 -2 -2
-0 -0 -4 -16 -1 -14 -1 -20 -26 -19 -9 -2 -1 -2 -2 -2 -4 -2 -4 -3 -3 -1 -1 -1 -1 -1 -1 -1 -1 -1 -1 -0 -0 -1 -1 -6 -1 -4 -1 -1 -1 -1 -1 -1 -1 -3 -2 -2 -2
-0 -0 -2 -13 -26 -1 -5 -32 -3 -0 -21 -1 -1 -2 -3 -3 -0 -4 -4 -2 -2 -1 -1 -1 -1 -0 -1 -1 -1 -1 -3 -1 -1 -0 -0 -2 -1 -0 -1 -0 -3 -3 -2 -3 -0 -3 -6 -1 -3
-17 -0 -2 -11 -7 -16 -7 -3 -1 -1 -4 -1 -1 -2 -2 -3 -1 -1 -3 -2 -2 -2 -2 -1 -1 -2 -2 -1 -2 -1 -1 -1 -1 -1 -0 -0 -1 -1 -1 -0 -1 -6 -2 -1 -0 -7 -2 -2 -7
-2 -2 -3 -6 -7 -2 -1 -0 -0 -0 -16 -1 -2 -3 -2 -2 -3 -2 -12 -2 -4 -1 -1 -1 -1 -0 -4 -1 -1 -3 -2 -2 -1 -1 -1 -1 -0 -0 -1 -0 -2 -10 -5 -2 -2 -4 -12 -2 -4
-0 -2 -2 -16 -7 -1 -4 -8 -0 -0 -1 -1 -2 -23 -2 -2 -2 -6 -14 -3 -1 -2 -1 -1 -1 -1 -5 -4 -1 -3 -4 -2 -1 -1 -1 -1 -1 -0 -0 -0 -7 -12 -4 -2 -4 -3 -4 -12 -1
-0 -2 -3 -1 -3 -3 -8 -0 -62 -4 -2 -18 -2 -16 -3 -5 -2 -2 -2 -2 -1 -1 -2 -1 -1 -0 -1 -2 -9 -5 -2 -1 -1 -1 -1 -1 -0 -1 -1 -0 -8 -8 -8 -3 -3 -5 -6 -1 -2
-0 -20 -6 -6 -2 -36 -13 -7 -26 -38 -68 -35 -53 -19 -3 -4 -5 -2 -3 -3 -9 -3 -2 -1 -6 -3 -0 -0 -0 -10 -2 -9 -13 -3 -6 -1 -1 -1 -0 -0 -0 -0 -1 -1 -4 -5 -4 -2 -4
-0 -17 -18 -1 -2 -6 -0 -0 -19 -20 -62 -78 -95 -63 -6 -4 -2 -2 -5 -5 -2 -5 -2 -2 -5 -5 -7 -0 -0 -1 -2 -1 -13 -4 -8 -4 -2 -1 -1 -0 -0 -2 -7 -0 -0 -7 -0 -3 -1
-0 -6 -6 -5 -4 -4 -38 -0 -31 -51 -26 -39 -33 -66 -4 -4 -2 -2 -2 -10 -26 -3 -1 -2 -8 -4 -4 -5 -2 -0 -1 -9 -10 -3 -4 -1 -5 -3 -7 -2 -1 -0 -0 -2 -4 -2 -2 -0 -3
-0 -0 -6 -13 -7 -4 -9 -10 -124 -109 -70 -62 -32 -30 -34 -10 -19 -8 -2 -3 -5 -15 -10 -10 -13 -5 -1 -2 -2 -5 -3 -5 -13 -5 -19 -1 -1 -2 -3 -0 -0 -0 -1 -0 -1 -2 -5 -1 -4
-0 -0 -6 -3 -3 -4 -4 -3 -2 -85 -66 -76 -13 -28 -55 -22 -10 -2 -2 -1 -10 -75 -30 -42 -18 -19 -7 -2 -1 -1 -4 -2 -7 -7 -7 -8 -1 -3 -1 -1 -1 -1 -0 -0 -5 -1 -1 -1 -1
-0 -0 -0 -5 -0 -5 -3 -3 -22 -69 -75 -43 -24 -68 -69 -75 -44 -25 -5 -11 -27 -40 -54 -35 -16 -14 -23 -11 -9 -2 -0 -3 -2 -1 -6 -6 -13 -10 -6 -0 -0 -0 -1 -1 -1 -1 -1 -0 -1
-0 -0 -0 -0 -4 -0 -15 -14 -167 -93 -103 -74 -48 -61 -59 -47 -27 -26 -24 -38 -41 -46 -84 -83 -21 -5 -6 -9 -1 -3 -1 -0 -1 -0 -0 -9 -16 -17 -4 -3 -1 -10 -9 -1 -10 -1 -1 -0 -1
Wind_Speed
17 17 15 14 16 16 22 19 14 19 20 13 7 17 6 9 17 23 30 28 29 28 26 24 23 9 4 2 2 2 4 4 1 1 3 10 9 10 15 16 28 20 16 17 25 28 14 14 14
17 16 15 3 17 21 22 15 21 10 8 23 13 14 20 13 11 27 27 30 30 28 26 23 19 10 5 3 4 5 4 4 3 2 2 4 9 9 14 16 12 15 12 13 11 10 12 11 10
16 15 13 15 17 23 23 9 16 11 23 8 14 10 11 16 30 24 28 31 30 27 23 20 18 12 6 5 5 5 5 5 4 4 5 10 6 15 16 14 14 10 7 3 4 9 1 5 4
15 15 14 14 19 15 7 26 23 22 18 15 18 7 11 20 29 27 31 30 28 26 23 23 22 17 7 6 7 8 7 6 6 5 7 14 12 12 16 15 12 4 4 2 11 10 9 5 4
16 17 15 12 12 13 5 3 20 23 18 14 17 11 19 21 28 28 30 30 28 26 22 23 25 22 6 6 8 9 8 6 5 5 5 9 13 16 15 15 18 3 11 12 2 4 7 5 4
15 18 17 8 13 10 3 11 26 23 5 6 2 22 9 28 29 29 30 28 27 25 23 22 22 6 13 8 8 10 7 6 5 6 5 10 13 16 14 12 8 4 7 6 2 3 8 6 7
16 14 13 14 7 3 3 16 27 27 18 5 7 23 24 31 30 28 29 26 26 25 19 23 23 20 11 11 10 11 9 5 5 7 6 6 11 3 9 4 1 2 2 3 3 4 5 12 8
16 17 13 18 6 5 11 18 20 27 13 7 4 25 28 31 31 29 28 28 26 24 23 10 24 5 21 4 9 8 8 5 5 8 6 5 2 10 18 15 3 3 3 3 3 3 7 7 9
16 17 18 17 8 7 13 21 19 19 15 20 19 25 28 34 31 30 29 28 26 25 24 21 18 13 12 5 4 8 4 9 12 15 8 3 3 7 13 2 9 7 8 6 5 3 18 24 24
16 17 18 17 9 11 10 8 8 21 18 5 2 17 28 34 32 30 29 28 27 25 25 25 20 10 22 6 6 6 17 9 13 3 6 23 16 7 3 8 12 9 12 10 13 15 19 19 17
14 16 17 16 11 18 6 23 19 29 27 20 22 28 29 31 32 30 28 28 26 26 25 25 17 18 13 18 19 13 21 22 24 26 17 12 18 15 13 13 15 15 18 14 15 14 13 14 15
11 15 20 13 16 8 16 22 13 23 18 23 23 30 34 30 32 31 27 27 26 27 26 26 25 23 17 20 14 13 15 20 26 1 27 25 24 22 15 12 12 15 13 13 10 9 12 17 18
15 13 16 17 21 23 20 7 15 15 10 15 30 30 32 30 31 30 28 26 26 27 26 26 26 25 21 18 16 10 22 26 23 28 21 21 24 24 17 14 12 12 15 14 11 10 10 16 18
11 10 12 18 12 9 13 15 15 13 6 19 31 28 30 28 30 30 28 26 25 27 26 26 26 26 24 22 21 19 19 22 25 26 21 20 19 18 18 16 14 13 13 11 11 12 14 14 17
8 10 9 16 22 27 19 20 8 14 10 19 29 27 30 28 29 30 27 26 25 26 27 26 26 27 25 22 24 21 26 26 25 24 22 16 17 16 16 14 15 13 11 13 13 16 18 17 18
11 12 18 7 20 29 29 26 13 19 10 18 22 24 25 27 28 30 28 26 24 24 27 27 27 27 27 23 22 20 20 25 24 25 26 18 17 16 17 17 15 14 14 12 12 15 16 15 17
16 18 18 14 26 30 31 3 30 23 14 16 17 23 22 27 25 30 28 26 23 21 27 28 27 27 27 27 21 18 20 22 24 25 22 19 18 17 17 16 15 17 15 12 13 14 15 16 16
21 21 13 7 7 23 16 5 11 9 21 20 21 16 16 24 26 31 29 24 23 21 26 28 27 26 28 27 22 22 23 23 23 24 21 20 18 17 18 16 17 18 17 14 11 12 13 13 14
20 20 15 11 4 1 6 6 0 15 25 21 19 12 14 20 20 24 31 28 21 22 25 28 28 28 28 27 25 22 24 23 23 23 22 21 19 18 17 17 19 18 15 12 14 15 13 12 13
21 20 12 9 1 17 13 15 4 8 23 18 17 11 11 21 16 25 31 30 27 23 22 27 28 28 27 25 23 21 20 22 22 22 21 23 21 21 19 18 18 18 13 14 13 13 15 13 11
19 20 16 15 10 14 19 15 12 3 17 17 13 11 13 13 6 24 33 32 31 25 22 27 28 28 27 25 25 22 19 19 22 23 23 24 23 23 22 19 18 19 18 16 15 13 15 14 13
18 18 16 14 13 21 19 18 16 6 10 10 12 13 12 10 13 10 33 34 32 31 12 22 28 28 28 26 26 24 22 21 20 22 22 24 24 24 24 22 21 21 18 17 17 15 15 16 14
17 15 16 16 19 13 18 18 14 6 14 12 11 18 13 16 14 12 19 35 31 28 2 9 11 25 28 28 23 23 22 21 18 21 18 22 23 24 24 24 23 22 22 18 17 18 16 16 15
19 15 15 18 20 25 21 24 17 9 23 22 17 34 20 36 17 20 28 17 23 19 15 5 2 3 19 26 24 23 21 20 18 19 20 20 19 23 25 24 25 24 22 20 20 19 19 17 16
22 19 23 26 25 24 16 23 15 6 9 17 25 27 41 13 13 16 10 10 15 8 9 3 4 1 5 23 23 25 24 21 23 23 22 22 21 20 16 24 24 25 23 20 19 19 19 20 18
29 28 27 30 28 27 17 24 18 18 21 20 22 15 19 15 13 27 12 12 13 10 8 6 3 5 5 10 20 21 20 18 22 24 18 24 23 23 15 13 18 19 21 20 19 21 24 18 20
28 38 30 33 26 29 18 20 17 15 21 16 14 22 25 17 16 25 34 12 10 8 8 5 6 6 8 9 10 16 18 15 20 20 20 22 20 10 19 4 12 18 19 21 20 24 22 20 20
28 27 32 29 28 32 20 26 18 15 13 5 13 22 18 23 31 27 29 20 11 14 9 11 8 9 10 13 15 15 16 18 15 17 18 18 12 21 6 14 9 5 10 15 18 17 17 19 20
27 30 33 33 34 31 31 24 16 11 10 5 6 14 15 18 31 31 22 17 16 10 11 11 11 10 14 18 14 16 17 16 16 20 16 12 6 5 6 5 8 6 6 7 10 18 15 16 19
30 29 27 35 27 31 26 18 15 15 11 11 5 5 12 15 24 12 14 15 16 13 12 15 11 15 16 17 19 18 17 17 16 17 16 15 11 8 12 8 7 5 5 5 6 10 15 16 19
Wind_Direction
122 118 127 113 207 180 118 152 48 73 82 207 55 163 216 202 163 119 111 110 111 105 100 92 82 32 2 290 257 278 213 204 247 232 345 23 22 26 39 42 68 52 42 44 59 65 30 26 27
100 99 98 202 208 120 111 64 84 88 62 92 194 112 150 164 199 97 103 114 114 107 102 91 72 36 353 317 261 241 255 238 254 253 313 352 23 25 38 43 39 43 36 37 30 27 24 20 13
92 102 100 252 230 142 104 86 77 65 95 83 192 218 207 165 104 122 107 116 115 107 92 80 72 41 357 305 293 270 273 260 289 308 334 24 14 39 44 41 42 34 28 10 174 166 338 0 351
81 73 87 221 181 212 254 121 102 95 91 204 75 215 198 170 130 105 114 115 109 105 91 94 88 66 352 313 267 246 251 279 263 319 353 32 31 35 48 44 33 5 354 266 168 171 169 192 343
54 49 252 278 241 227 273 259 100 106 134 204 191 155 99 174 111 105 114 118 112 104 91 92 108 97 342 283 240 230 231 272 290 318 336 13 32 47 45 43 47 186 155 161 360 357 4 345 332
331 10 355 303 253 240 284 229 124 114 78 234 4 78 173 143 111 113 118 113 113 101 93 90 106 239 203 233 230 213 238 328 316 343 342 20 32 48 45 37 21 0 18 14 339 329 359 342 350
296 284 209 265 61 331 315 225 177 152 100 262 222 90 164 129 121 115 123 112 114 107 73 100 95 161 208 209 216 210 219 277 312 0 1 1 27 173 191 205 272 328 347 352 333 215 337 8 348
335 320 113 203 86 282 245 218 204 183 227 242 51 145 121 127 129 119 119 123 115 107 98 28 142 234 169 281 220 226 227 272 343 17 14 12 310 185 167 161 235 224 235 245 283 253 158 344 357
331 298 269 276 79 250 233 209 214 216 219 211 213 141 116 133 123 119 120 120 116 120 117 93 80 190 211 354 334 33 325 22 46 58 31 298 326 207 182 272 198 206 198 208 213 221 141 121 119
300 296 302 320 359 121 217 234 231 191 168 249 202 95 115 129 129 124 123 122 122 116 127 124 118 146 165 349 261 240 142 145 117 322 22 144 186 227 305 214 195 206 188 189 169 155 138 142 148
312 296 334 349 77 116 208 197 213 161 152 116 114 120 122 124 135 127 125 127 118 125 125 132 190 189 203 181 179 199 163 160 102 143 185 189 179 176 201 202 194 186 165 174 161 161 167 163 155
318 323 332 24 96 114 210 203 224 200 215 121 120 123 131 126 137 133 125 126 122 131 133 132 148 168 194 178 200 203 193 174 148 28 151 150 148 158 187 204 209 188 190 182 190 184 173 156 152
292 316 342 86 100 157 209 229 226 222 228 106 123 124 129 129 137 137 129 123 126 133 132 137 145 157 179 187 192 214 153 146 137 144 179 174 159 156 181 193 205 201 187 187 191 187 180 159 157
307 325 16 93 229 222 211 223 227 223 124 113 127 125 129 128 137 139 133 126 127 139 133 130 139 154 166 175 174 175 176 157 159 156 180 178 181 182 182 188 194 195 200 213 205 196 177 175 162
317 310 321 97 188 196 209 214 244 212 129 118 128 127 132 130 138 147 135 129 128 139 135 130 131 137 159 174 168 175 150 151 157 166 179 196 193 198 196 201 194 201 211 200 198 180 169 170 161
274 286 241 112 119 191 176 137 225 209 143 123 125 126 124 129 134 152 139 129 123 122 132 134 137 132 147 172 180 182 181 157 162 166 163 197 200 205 201 200 204 206 202 208 205 187 178 182 171
259 256 239 231 146 143 165 150 195 207 170 131 130 131 126 134 130 153 136 131 120 114 138 146 133 138 143 154 185 194 188 177 168 171 182 194 198 204 201 205 204 192 202 213 202 195 191 185 180
247 249 258 271 155 123 209 274 140 212 205 135 134 132 127 133 137 156 147 125 122 115 141 157 137 127 144 150 180 180 175 173 176 175 190 198 205 210 205 214 203 194 199 207 222 211 205 207 204
258 254 258 268 102 263 283 304 63 150 155 146 141 144 135 132 128 132 159 147 121 122 137 158 156 149 151 153 166 188 176 179 179 184 197 203 209 210 215 215 200 200 218 233 219 202 210 223 217
254 253 254 275 294 247 268 270 329 147 164 159 155 165 152 140 132 143 166 163 151 134 134 153 167 167 167 180 188 196 202 191 187 190 199 196 204 207 211 217 211 212 233 228 230 221 210 221 235
254 251 249 259 264 279 242 276 280 170 159 163 176 176 161 221 176 148 175 173 176 148 136 160 169 171 173 178 177 194 211 210 193 192 192 192 195 197 204 219 224 214 219 227 225 232 219 221 234
250 261 256 251 257 256 250 271 270 176 174 181 179 174 205 191 226 162 171 183 185 187 122 141 167 176 173 180 177 184 190 202 212 203 201 193 192 195 194 201 205 211 225 231 225 230 222 218 233
260 258 256 249 263 271 259 260 267 155 233 210 199 224 209 163 162 157 155 182 208 215 131 112 114 209 194 187 208 199 196 201 224 210 230 213 207 201 195 196 202 210 208 234 234 226 229 224 231
257 251 256 259 264 258 256 253 261 145 172 168 178 221 225 175 163 232 226 236 233 237 244 253 124 101 236 208 213 206 211 212 225 225 218 222 229 210 202 202 197 204 218 227 233 239 234 238 241
242 240 245 248 251 261 272 259 283 225 259 160 172 172 193 186 189 165 172 233 238 236 244 230 254 205 272 229 231 215 214 224 200 199 211 208 221 230 251 212 210 207 227 240 244 248 249 239 248
238 239 245 246 250 254 274 258 276 256 254 189 164 212 179 179 204 213 227 237 233 236 237 247 238 262 273 274 244 244 245 253 218 190 244 189 168 208 259 268 244 245 240 249 259 245 226 268 253
239 238 249 258 260 255 269 263 278 281 262 260 150 160 226 218 217 231 224 236 231 202 229 235 261 265 271 275 285 267 260 275 248 243 244 223 236 238 143 0 284 261 257 251 263 238 254 265 266
248 242 242 250 248 248 261 257 275 271 272 253 143 156 170 231 229 232 231 239 237 241 241 249 263 266 271 270 273 276 275 269 278 273 262 270 296 210 325 126 99 35 308 287 270 278 274 274 272
241 244 244 251 250 256 252 264 277 286 278 249 181 150 156 218 228 229 237 238 242 236 244 246 262 266 266 266 272 275 274 275 276 269 283 301 337 20 356 349 318 357 355 349 321 278 293 289 283
242 244 244 243 248 254 268 270 283 276 280 258 229 218 152 163 164 208 227 233 240 244 242 250 268 269 269 266 265 270 276 277 279 277 281 285 304 317 304 320 329 21 61 6 2 326 299 295 287